Time,TemperatureF,DewpointF,PressureIn,WindDirection,WindDirectionDegrees,WindSpeedMPH,WindSpeedGustMPH,Humidity,HourlyPrecipIn,Conditions,Clouds,dailyrainin,SoftwareType,DateUTC
2013-08-05 00:00:00,55.2,52.0,30.06,NE,45,0.0,1.0,89,0.00,,,0.00,Weather View 32 v70,2013-08-05 08:00:00,
2013-08-05 00:05:00,55.2,52.0,30.06,SW,225,0.0,1.0,89,0.00,,,0.00,Weather View 32 v70,2013-08-05 08:05:00,
2013-08-05 00:10:00,55.2,52.0,30.06,SW,225,0.0,1.0,89,0.00,,,0.00,Weather View 32 v70,2013-08-05 08:10:00,
2013-08-05 00:15:00,55.2,52.0,30.06,South,180,0.0,1.0,89,0.00,,,0.00,Weather View 32 v70,2013-08-05 08:15:00,
2013-08-05 00:25:00,55.0,51.8,30.06,West,270,0.0,1.0,89,0.00,,,0.00,Weather View 32 v70,2013-08-05 08:25:00,
2013-08-05 00:30:00,54.9,51.7,30.06,South,180,0.0,1.0,89,0.00,,,0.00,Weather View 32 v70,2013-08-05 08:30:00,
2013-08-05 00:40:00,54.9,51.7,30.06,South,180,0.0,1.0,89,0.00,,,0.00,Weather View 32 v70,2013-08-05 08:40:00,
2013-08-05 00:45:00,54.9,51.7,30.06,South,180,0.0,1.0,89,0.00,,,0.00,Weather View 32 v70,2013-08-05 08:45:00,
2013-08-05 00:50:00,54.9,51.7,30.06,South,180,0.0,1.0,89,0.00,,,0.00,Weather View 32 v70,2013-08-05 08:50:00,
2013-08-05 01:00:00,54.9,52.0,30.06,South,180,0.0,0.0,90,0.00,,,0.00,Weather View 32 v70,2013-08-05 09:00:00,
2013-08-05 01:05:00,55.0,52.2,30.06,South,180,0.0,0.0,90,0.00,,,0.00,Weather View 32 v70,2013-08-05 09:05:00,
2013-08-05 01:15:00,55.2,52.0,30.06,South,180,0.0,0.0,89,0.00,,,0.00,Weather View 32 v70,2013-08-05 09:15:00,
2013-08-05 01:20:00,55.0,51.8,30.06,South,180,0.0,0.0,89,0.00,,,0.00,Weather View 32 v70,2013-08-05 09:20:00,
2013-08-05 01:25:00,54.9,51.7,30.06,South,180,0.0,0.0,89,0.00,,,0.00,Weather View 32 v70,2013-08-05 09:25:00,
2013-08-05 01:30:00,54.9,51.7,30.06,South,180,0.0,0.0,89,0.00,,,0.00,Weather View 32 v70,2013-08-05 09:30:00,
2013-08-05 01:35:00,54.9,51.7,30.06,South,180,0.0,0.0,89,0.00,,,0.00,Weather View 32 v70,2013-08-05 09:35:00,
2013-08-05 01:45:00,54.9,51.7,30.06,NE,45,0.0,0.0,89,0.00,,,0.00,Weather View 32 v70,2013-08-05 09:45:00,
2013-08-05 01:50:00,54.9,51.7,30.06,NE,45,0.0,0.0,89,0.00,,,0.00,Weather View 32 v70,2013-08-05 09:50:00,
2013-08-05 01:55:00,54.9,51.7,30.06,NE,45,0.0,0.0,89,0.00,,,0.00,Weather View 32 v70,2013-08-05 09:55:00,
2013-08-05 02:05:00,54.9,51.7,30.06,NE,45,0.0,0.0,89,0.00,,,0.00,Weather View 32 v70,2013-08-05 10:05:00,
2013-08-05 02:10:00,54.9,51.7,30.06,NE,45,0.0,0.0,89,0.00,,,0.00,Weather View 32 v70,2013-08-05 10:10:00,
2013-08-05 02:25:00,54.9,52.0,30.06,NE,45,0.0,0.0,90,0.00,,,0.00,Weather View 32 v70,2013-08-05 10:25:00,
2013-08-05 02:35:00,54.9,51.7,30.06,NE,45,0.0,0.0,89,0.00,,,0.00,Weather View 32 v70,2013-08-05 10:35:00,
2013-08-05 02:45:00,54.9,52.0,30.06,SE,135,0.0,0.0,90,0.00,,,0.00,Weather View 32 v70,2013-08-05 10:45:00,
2013-08-05 02:50:00,54.7,51.8,30.06,ESE,112,0.0,0.0,90,0.00,,,0.00,Weather View 32 v70,2013-08-05 10:50:00,
2013-08-05 02:55:00,54.7,51.8,30.06,ESE,112,0.0,0.0,90,0.00,,,0.00,Weather View 32 v70,2013-08-05 10:55:00,
2013-08-05 03:05:00,54.9,52.0,30.06,ESE,112,0.0,0.0,90,0.00,,,0.00,Weather View 32 v70,2013-08-05 11:05:00,
2013-08-05 03:15:00,54.5,51.6,30.06,ESE,112,0.0,0.0,90,0.00,,,0.00,Weather View 32 v70,2013-08-05 11:15:00,
2013-08-05 03:20:00,54.3,51.4,30.06,ESE,112,0.0,0.0,90,0.00,,,0.00,Weather View 32 v70,2013-08-05 11:20:00,
2013-08-05 03:25:00,54.3,51.4,30.06,ESE,112,0.0,0.0,90,0.00,,,0.00,Weather View 32 v70,2013-08-05 11:25:00,
2013-08-05 03:35:00,54.1,51.3,30.06,ESE,112,0.0,0.0,90,0.00,,,0.00,Weather View 32 v70,2013-08-05 11:35:00,
2013-08-05 03:40:00,54.0,51.1,30.06,NE,45,0.0,0.0,90,0.00,,,0.00,Weather View 32 v70,2013-08-05 11:40:00,
2013-08-05 03:45:00,54.0,51.1,30.06,NE,45,0.0,0.0,90,0.00,,,0.00,Weather View 32 v70,2013-08-05 11:45:00,
2013-08-05 04:05:00,53.4,50.6,30.05,NE,45,0.0,0.0,90,0.00,,,0.00,Weather View 32 v70,2013-08-05 12:05:00,
2013-08-05 04:10:00,53.6,51.0,30.05,NE,45,0.0,0.0,91,0.00,,,0.00,Weather View 32 v70,2013-08-05 12:10:00,
2013-08-05 04:15:00,53.4,50.9,30.05,NE,45,0.0,0.0,91,0.00,,,0.00,Weather View 32 v70,2013-08-05 12:15:00,
2013-08-05 04:20:00,53.4,50.9,30.05,NNE,22,0.0,0.0,91,0.00,,,0.00,Weather View 32 v70,2013-08-05 12:20:00,
2013-08-05 04:27:00,53.2,50.7,30.05,NNE,22,0.0,0.0,91,0.00,,,0.00,Weather View 32 v70,2013-08-05 12:27:00,
2013-08-05 04:35:00,53.1,50.5,30.05,NNE,22,0.0,0.0,91,0.00,,,0.00,Weather View 32 v70,2013-08-05 12:35:00,
2013-08-05 04:40:00,52.9,50.3,30.05,NNE,22,0.0,0.0,91,0.00,,,0.00,Weather View 32 v70,2013-08-05 12:40:00,
2013-08-05 04:45:00,53.1,50.5,30.05,NNE,22,0.0,0.0,91,0.00,,,0.00,Weather View 32 v70,2013-08-05 12:45:00,
2013-08-05 04:55:00,52.9,50.3,30.05,NNE,22,0.0,0.0,91,0.00,,,0.00,Weather View 32 v70,2013-08-05 12:55:00,
2013-08-05 05:05:00,52.9,50.3,30.04,NNE,22,0.0,0.0,91,0.00,,,0.00,Weather View 32 v70,2013-08-05 13:05:00,
2013-08-05 05:10:00,52.9,50.3,30.04,NNE,22,0.0,0.0,91,0.00,,,0.00,Weather View 32 v70,2013-08-05 13:10:00,
2013-08-05 05:15:00,52.9,50.3,30.04,NNE,22,0.0,0.0,91,0.00,,,0.00,Weather View 32 v70,2013-08-05 13:15:00,
2013-08-05 05:20:00,52.7,50.1,30.04,NNE,22,0.0,0.0,91,0.00,,,0.00,Weather View 32 v70,2013-08-05 13:20:00,
2013-08-05 05:25:00,52.5,50.0,30.03,NNE,22,0.0,0.0,91,0.00,,,0.00,Weather View 32 v70,2013-08-05 13:25:00,
2013-08-05 05:31:00,52.7,50.4,30.03,NE,45,0.0,0.0,92,0.00,,,0.00,Weather View 32 v70,2013-08-05 13:31:00,
2013-08-05 05:40:00,52.7,50.4,30.03,North,0,0.0,0.0,92,0.00,,,0.00,Weather View 32 v70,2013-08-05 13:40:00,
2013-08-05 05:45:00,52.7,50.4,30.04,North,0,0.0,0.0,92,0.00,,,0.00,Weather View 32 v70,2013-08-05 13:45:00,
2013-08-05 05:50:00,52.9,50.6,30.04,NNE,22,0.0,0.0,92,0.00,,,0.00,Weather View 32 v70,2013-08-05 13:50:00,
2013-08-05 05:56:00,52.9,50.6,30.04,ENE,68,0.0,0.0,92,0.00,,,0.00,Weather View 32 v70,2013-08-05 13:56:00,
2013-08-05 06:05:00,52.9,50.6,30.03,ENE,68,0.0,0.0,92,0.00,,,0.00,Weather View 32 v70,2013-08-05 14:05:00,
2013-08-05 06:15:00,53.1,50.8,30.03,ENE,68,0.0,0.0,92,0.00,,,0.00,Weather View 32 v70,2013-08-05 14:15:00,
2013-08-05 06:21:00,53.1,50.8,30.03,ENE,68,0.0,0.0,92,0.00,,,0.00,Weather View 32 v70,2013-08-05 14:21:00,
2013-08-05 06:26:00,53.4,51.1,30.07,ENE,68,0.0,0.0,92,0.00,,,0.00,Weather View 32 v70,2013-08-05 14:26:00,
2013-08-05 06:30:00,53.4,51.1,30.07,ENE,68,0.0,0.0,92,0.00,,,0.00,Weather View 32 v70,2013-08-05 14:30:00,
2013-08-05 06:35:00,53.4,51.1,30.07,ENE,68,0.0,0.0,92,0.00,,,0.00,Weather View 32 v70,2013-08-05 14:35:00,
2013-08-05 06:46:00,53.6,51.3,30.07,ENE,68,0.0,0.0,92,0.00,,,0.00,Weather View 32 v70,2013-08-05 14:46:00,
2013-08-05 06:55:00,53.6,51.3,30.10,North,0,0.0,0.0,92,0.00,,,0.00,Weather View 32 v70,2013-08-05 14:55:00,
2013-08-05 07:01:00,54.1,51.9,30.10,North,0,0.0,0.0,92,0.00,,,0.00,Weather View 32 v70,2013-08-05 15:01:00,
2013-08-05 07:05:00,54.0,51.7,30.12,NE,45,0.0,0.0,92,0.00,,,0.00,Weather View 32 v70,2013-08-05 15:05:00,
2013-08-05 07:11:00,54.1,51.9,30.12,North,0,0.0,0.0,92,0.00,,,0.00,Weather View 32 v70,2013-08-05 15:11:00,
2013-08-05 07:16:00,54.5,52.2,30.12,NNE,22,1.0,1.0,92,0.00,,,0.00,Weather View 32 v70,2013-08-05 15:16:00,
2013-08-05 07:21:00,54.5,52.2,30.12,North,0,1.0,1.0,92,0.00,,,0.00,Weather View 32 v70,2013-08-05 15:21:00,
2013-08-05 07:29:00,54.9,52.6,30.13,NNE,22,1.0,1.0,92,0.00,,,0.00,Weather View 32 v70,2013-08-05 15:29:00,
2013-08-05 07:36:00,54.9,52.6,30.13,NNE,22,1.0,1.0,92,0.00,,,0.00,Weather View 32 v70,2013-08-05 15:36:00,
2013-08-05 07:41:00,55.0,52.8,30.13,NE,45,1.0,1.0,92,0.00,,,0.00,Weather View 32 v70,2013-08-05 15:41:00,
2013-08-05 07:51:00,55.4,52.8,30.13,NW,315,1.0,1.0,91,0.00,,,0.00,Weather View 32 v70,2013-08-05 15:51:00,
2013-08-05 07:55:00,55.6,53.0,30.13,NNE,22,1.0,1.0,91,0.00,,,0.00,Weather View 32 v70,2013-08-05 15:55:00,
2013-08-05 08:05:00,55.8,53.2,30.14,NNW,338,1.0,1.0,91,0.00,,,0.00,Weather View 32 v70,2013-08-05 16:05:00,
2013-08-05 08:11:00,55.8,53.2,30.14,North,0,1.0,1.0,91,0.00,,,0.00,Weather View 32 v70,2013-08-05 16:11:00,
2013-08-05 08:16:00,56.3,53.7,30.14,NNE,22,2.0,2.0,91,0.00,,,0.00,Weather View 32 v70,2013-08-05 16:16:00,
2013-08-05 08:21:00,56.5,53.6,30.14,NNW,338,2.0,2.0,90,0.00,,,0.00,Weather View 32 v70,2013-08-05 16:21:00,
2013-08-05 08:30:00,56.5,53.6,30.14,NNW,338,2.0,2.0,90,0.00,,,0.00,Weather View 32 v70,2013-08-05 16:30:00,
2013-08-05 08:36:00,57.0,54.1,30.14,North,0,1.0,2.0,90,0.00,,,0.00,Weather View 32 v70,2013-08-05 16:36:00,
2013-08-05 08:41:00,57.6,54.3,30.14,NNE,22,2.0,2.0,89,0.00,,,0.00,Weather View 32 v70,2013-08-05 16:41:00,
2013-08-05 08:46:00,58.1,54.6,30.13,NNW,338,2.0,2.0,88,0.00,,,0.00,Weather View 32 v70,2013-08-05 16:46:00,
2013-08-05 08:51:00,58.8,54.9,30.13,NNE,22,2.0,2.0,87,0.00,,,0.00,Weather View 32 v70,2013-08-05 16:51:00,
2013-08-05 09:01:00,59.5,54.7,30.13,NNE,22,3.0,3.0,84,0.00,,,0.00,Weather View 32 v70,2013-08-05 17:01:00,
2013-08-05 09:10:00,61.2,55.3,30.09,NNW,338,3.0,3.0,81,0.00,,,0.00,Weather View 32 v70,2013-08-05 17:10:00,
2013-08-05 09:15:00,61.5,55.3,30.09,NNW,338,3.0,3.0,80,0.00,,,0.00,Weather View 32 v70,2013-08-05 17:15:00,
2013-08-05 09:26:00,62.2,55.3,30.07,North,0,3.0,3.0,78,0.00,,,0.00,Weather View 32 v70,2013-08-05 17:26:00,
2013-08-05 09:36:00,63.5,55.8,30.07,NNE,22,3.0,3.0,76,0.00,,,0.00,Weather View 32 v70,2013-08-05 17:36:00,
2013-08-05 09:46:00,63.7,55.2,30.07,North,0,4.0,4.0,74,0.00,,,0.00,Weather View 32 v70,2013-08-05 17:46:00,
2013-08-05 09:51:00,63.5,55.0,30.07,North,0,3.0,4.0,74,0.00,,,0.00,Weather View 32 v70,2013-08-05 17:51:00,
2013-08-05 09:56:00,63.5,55.0,30.07,NE,45,2.0,4.0,74,0.00,,,0.00,Weather View 32 v70,2013-08-05 17:56:00,
2013-08-05 10:05:00,64.0,55.2,30.08,NE,45,2.0,4.0,73,0.00,,,0.00,Weather View 32 v70,2013-08-05 18:05:00,
2013-08-05 10:10:00,64.8,55.1,30.08,SSE,158,2.0,4.0,71,0.00,,,0.00,Weather View 32 v70,2013-08-05 18:10:00,
2013-08-05 10:15:00,65.7,55.2,30.08,North,0,2.0,4.0,69,0.00,,,0.00,Weather View 32 v70,2013-08-05 18:15:00,
2013-08-05 10:20:00,65.3,54.8,30.08,ESE,112,2.0,4.0,69,0.00,,,0.00,Weather View 32 v70,2013-08-05 18:20:00,
2013-08-05 10:25:00,65.7,54.8,30.08,East,90,2.0,4.0,68,0.00,,,0.00,Weather View 32 v70,2013-08-05 18:25:00,
2013-08-05 10:30:00,66.4,55.5,30.09,NE,45,2.0,4.0,68,0.00,,,0.00,Weather View 32 v70,2013-08-05 18:30:00,
2013-08-05 10:40:00,65.3,54.0,30.09,NE,45,1.0,4.0,67,0.00,,,0.00,Weather View 32 v70,2013-08-05 18:40:00,
2013-08-05 10:50:00,64.8,53.5,30.10,NE,45,2.0,3.0,67,0.00,,,0.00,Weather View 32 v70,2013-08-05 18:50:00,
2013-08-05 10:55:00,64.9,54.1,30.10,NW,315,2.0,2.0,68,0.00,,,0.00,Weather View 32 v70,2013-08-05 18:55:00,
2013-08-05 11:10:00,64.9,54.1,30.11,North,0,2.0,2.0,68,0.00,,,0.00,Weather View 32 v70,2013-08-05 19:10:00,
2013-08-05 11:20:00,64.8,54.3,30.11,NNE,22,2.0,2.0,69,0.00,,,0.00,Weather View 32 v70,2013-08-05 19:20:00,
2013-08-05 11:25:00,65.1,54.3,30.11,NNE,22,1.0,2.0,68,0.00,,,0.00,Weather View 32 v70,2013-08-05 19:25:00,
2013-08-05 11:30:00,65.1,53.9,30.11,North,0,1.0,2.0,67,0.00,,,0.00,Weather View 32 v70,2013-08-05 19:30:00,
2013-08-05 11:35:00,65.5,53.4,30.11,ENE,68,2.0,2.0,65,0.00,,,0.00,Weather View 32 v70,2013-08-05 19:35:00,
2013-08-05 11:40:00,66.0,53.5,30.11,North,0,2.0,2.0,64,0.00,,,0.00,Weather View 32 v70,2013-08-05 19:40:00,
2013-08-05 11:50:00,67.5,53.0,30.09,ENE,68,2.0,2.0,60,0.00,,,0.00,Weather View 32 v70,2013-08-05 19:50:00,
2013-08-05 11:55:00,68.5,53.1,30.09,NE,45,2.0,2.0,58,0.00,,,0.00,Weather View 32 v70,2013-08-05 19:55:00,
2013-08-05 12:00:00,68.4,53.4,30.09,SSW,202,2.0,2.0,59,0.00,,,0.00,Weather View 32 v70,2013-08-05 20:00:00,
2013-08-05 12:15:00,66.7,52.4,30.09,ESE,112,2.0,2.0,60,0.00,,,0.00,Weather View 32 v70,2013-08-05 20:15:00,
2013-08-05 12:20:00,66.4,52.0,30.09,NE,45,1.0,2.0,60,0.00,,,0.00,Weather View 32 v70,2013-08-05 20:20:00,
2013-08-05 12:30:00,66.7,52.8,30.11,ESE,112,2.0,2.0,61,0.00,,,0.00,Weather View 32 v70,2013-08-05 20:30:00,
2013-08-05 12:35:00,68.2,53.3,30.11,SSE,158,1.0,2.0,59,0.00,,,0.00,Weather View 32 v70,2013-08-05 20:35:00,
2013-08-05 12:40:00,68.4,53.0,30.11,NE,45,1.0,2.0,58,0.00,,,0.00,Weather View 32 v70,2013-08-05 20:40:00,
2013-08-05 12:45:00,68.9,53.0,30.11,North,0,2.0,2.0,57,0.00,,,0.00,Weather View 32 v70,2013-08-05 20:45:00,
2013-08-05 12:50:00,69.3,53.3,30.10,NE,45,1.0,2.0,57,0.00,,,0.00,Weather View 32 v70,2013-08-05 20:50:00,
2013-08-05 13:05:00,69.6,52.7,30.10,South,180,2.0,2.0,55,0.00,,,0.00,Weather View 32 v70,2013-08-05 21:05:00,
2013-08-05 13:20:00,71.6,53.0,30.11,North,0,1.0,2.0,52,0.00,,,0.00,Weather View 32 v70,2013-08-05 21:20:00,
2013-08-05 13:30:00,70.7,51.6,30.11,SE,135,1.0,2.0,51,0.00,,,0.00,Weather View 32 v70,2013-08-05 21:30:00,
2013-08-05 13:35:00,70.5,52.0,30.11,ENE,68,1.0,2.0,52,0.00,,,0.00,Weather View 32 v70,2013-08-05 21:35:00,
2013-08-05 13:45:00,74.7,53.6,30.11,NNW,338,1.0,2.0,48,0.00,,,0.00,Weather View 32 v70,2013-08-05 21:45:00,
2013-08-05 13:55:00,75.6,53.3,30.11,NNE,22,1.0,2.0,46,0.00,,,0.00,Weather View 32 v70,2013-08-05 21:55:00,
2013-08-05 14:00:00,73.9,51.8,30.11,NNE,22,1.0,2.0,46,0.00,,,0.00,Weather View 32 v70,2013-08-05 22:00:00,
2013-08-05 14:15:00,70.9,51.3,30.11,West,270,1.0,1.0,50,0.00,,,0.00,Weather View 32 v70,2013-08-05 22:15:00,
2013-08-05 14:25:00,69.6,50.6,30.12,West,270,0.0,1.0,51,0.00,,,0.00,Weather View 32 v70,2013-08-05 22:25:00,
2013-08-05 14:32:00,69.4,51.0,30.12,SSW,202,0.0,1.0,52,0.00,,,0.00,Weather View 32 v70,2013-08-05 22:32:00,
2013-08-05 14:40:00,68.7,51.9,30.12,East,90,0.0,1.0,55,0.00,,,0.00,Weather View 32 v70,2013-08-05 22:40:00,
2013-08-05 14:45:00,68.5,52.2,30.11,West,270,1.0,1.0,56,0.00,,,0.00,Weather View 32 v70,2013-08-05 22:45:00,
2013-08-05 14:50:00,68.0,52.6,30.11,WSW,248,1.0,1.0,58,0.00,,,0.00,Weather View 32 v70,2013-08-05 22:50:00,
2013-08-05 15:20:00,62.2,55.3,30.13,SE,135,2.0,2.0,78,0.03,,,0.03,Weather View 32 v70,2013-08-05 23:20:00,
2013-08-05 15:25:00,62.8,56.8,30.13,SE,135,1.0,2.0,81,0.03,,,0.03,Weather View 32 v70,2013-08-05 23:25:00,
2013-08-05 15:33:00,63.1,56.9,30.13,North,0,0.0,2.0,80,0.03,,,0.03,Weather View 32 v70,2013-08-05 23:33:00,
2013-08-05 15:40:00,63.9,57.2,30.13,NNW,338,2.0,2.0,79,0.03,,,0.03,Weather View 32 v70,2013-08-05 23:40:00,
2013-08-05 15:45:00,63.7,57.4,30.11,East,90,2.0,2.0,80,0.03,,,0.03,Weather View 32 v70,2013-08-05 23:45:00,
2013-08-05 15:55:00,64.2,57.2,30.11,NE,45,2.0,2.0,78,0.03,,,0.03,Weather View 32 v70,2013-08-05 23:55:00,
2013-08-05 16:00:00,64.9,57.5,30.11,North,0,2.0,2.0,77,0.03,,,0.03,Weather View 32 v70,2013-08-06 00:00:00,
2013-08-05 16:05:00,64.8,57.0,30.10,NW,315,2.0,2.0,76,0.03,,,0.03,Weather View 32 v70,2013-08-06 00:05:00,
2013-08-05 16:15:00,65.1,56.2,30.10,NNE,22,1.0,2.0,73,0.03,,,0.03,Weather View 32 v70,2013-08-06 00:15:00,
2013-08-05 16:20:00,64.9,56.4,30.10,NNW,338,2.0,2.0,74,0.00,,,0.03,Weather View 32 v70,2013-08-06 00:20:00,
2013-08-05 16:25:00,64.9,57.5,30.10,NNW,338,1.0,2.0,77,0.00,,,0.03,Weather View 32 v70,2013-08-06 00:25:00,
2013-08-05 16:30:00,64.9,57.2,30.10,NE,45,1.0,2.0,76,0.00,,,0.03,Weather View 32 v70,2013-08-06 00:30:00,
2013-08-05 16:35:00,64.6,57.5,30.10,NW,315,1.0,2.0,78,0.00,,,0.03,Weather View 32 v70,2013-08-06 00:35:00,
2013-08-05 16:40:00,64.6,57.5,30.10,NE,45,2.0,2.0,78,0.00,,,0.03,Weather View 32 v70,2013-08-06 00:40:00,
2013-08-05 16:45:00,64.6,57.2,30.10,WSW,248,2.0,2.0,77,0.00,,,0.03,Weather View 32 v70,2013-08-06 00:45:00,
2013-08-05 16:55:00,64.9,57.9,30.10,NNE,22,2.0,2.0,78,0.00,,,0.03,Weather View 32 v70,2013-08-06 00:55:00,
2013-08-05 17:00:00,64.9,57.5,30.10,NW,315,1.0,2.0,77,0.00,,,0.03,Weather View 32 v70,2013-08-06 01:00:00,
2013-08-05 17:15:00,64.2,56.5,30.10,ENE,68,1.0,2.0,76,0.00,,,0.03,Weather View 32 v70,2013-08-06 01:15:00,
2013-08-05 17:25:00,63.9,56.1,30.08,NE,45,1.0,2.0,76,0.00,,,0.03,Weather View 32 v70,2013-08-06 01:25:00,
2013-08-05 17:34:00,63.7,56.0,30.08,West,270,1.0,2.0,76,0.00,,,0.03,Weather View 32 v70,2013-08-06 01:34:00,
2013-08-05 17:40:00,63.5,55.0,30.08,NE,45,2.0,2.0,74,0.00,,,0.03,Weather View 32 v70,2013-08-06 01:40:00,
2013-08-05 17:50:00,62.4,54.7,30.08,South,180,1.0,2.0,76,0.00,,,0.03,Weather View 32 v70,2013-08-06 01:50:00,
2013-08-05 17:55:00,61.9,54.6,30.08,ESE,112,1.0,2.0,77,0.00,,,0.03,Weather View 32 v70,2013-08-06 01:55:00,
2013-08-05 18:05:00,61.7,54.4,30.08,ENE,68,1.0,2.0,77,0.00,,,0.03,Weather View 32 v70,2013-08-06 02:05:00,
2013-08-05 18:10:00,61.7,54.4,30.08,SE,135,1.0,2.0,77,0.00,,,0.03,Weather View 32 v70,2013-08-06 02:10:00,
2013-08-05 18:20:00,61.5,54.2,30.08,SSW,202,1.0,2.0,77,0.00,,,0.03,Weather View 32 v70,2013-08-06 02:20:00,
2013-08-05 18:25:00,61.7,54.4,30.07,NE,45,1.0,2.0,77,0.00,,,0.03,Weather View 32 v70,2013-08-06 02:25:00,
2013-08-05 18:35:00,62.1,54.7,30.07,SE,135,1.0,2.0,77,0.00,,,0.03,Weather View 32 v70,2013-08-06 02:35:00,
2013-08-05 18:40:00,62.4,54.4,30.07,SE,135,1.0,2.0,75,0.00,,,0.03,Weather View 32 v70,2013-08-06 02:40:00,
2013-08-05 18:50:00,63.0,54.5,30.07,NNE,22,1.0,2.0,74,0.00,,,0.03,Weather View 32 v70,2013-08-06 02:50:00,
2013-08-05 19:00:00,62.8,53.6,30.07,ENE,68,1.0,2.0,72,0.00,,,0.03,Weather View 32 v70,2013-08-06 03:00:00,
2013-08-05 19:05:00,62.6,53.8,30.06,ESE,112,1.0,2.0,73,0.00,,,0.03,Weather View 32 v70,2013-08-06 03:05:00,
2013-08-05 19:15:00,62.6,53.8,30.06,NE,45,1.0,1.0,73,0.00,,,0.03,Weather View 32 v70,2013-08-06 03:15:00,
2013-08-05 19:25:00,62.2,53.1,30.07,West,270,1.0,1.0,72,0.00,,,0.03,Weather View 32 v70,2013-08-06 03:25:00,
2013-08-05 19:30:00,62.1,52.9,30.07,SE,135,1.0,1.0,72,0.00,,,0.03,Weather View 32 v70,2013-08-06 03:30:00,
2013-08-05 19:35:00,61.7,52.2,30.07,SE,135,1.0,1.0,71,0.00,,,0.03,Weather View 32 v70,2013-08-06 03:35:00,
2013-08-05 19:45:00,61.3,52.6,30.07,West,270,1.0,1.0,73,0.00,,,0.03,Weather View 32 v70,2013-08-06 03:45:00,
2013-08-05 19:55:00,61.2,52.8,30.07,SE,135,0.0,1.0,74,0.00,,,0.03,Weather View 32 v70,2013-08-06 03:55:00,
2013-08-05 20:00:00,61.2,52.8,30.07,SSE,158,0.0,1.0,74,0.00,,,0.03,Weather View 32 v70,2013-08-06 04:00:00,
2013-08-05 20:05:00,61.0,52.2,30.07,South,180,0.0,1.0,73,0.00,,,0.03,Weather View 32 v70,2013-08-06 04:05:00,
2013-08-05 20:10:00,61.0,51.9,30.06,ENE,68,1.0,1.0,72,0.00,,,0.03,Weather View 32 v70,2013-08-06 04:10:00,
2013-08-05 20:15:00,60.8,51.3,30.06,SE,135,1.0,1.0,71,0.00,,,0.03,Weather View 32 v70,2013-08-06 04:15:00,
2013-08-05 20:20:00,60.8,51.3,30.06,SE,135,1.0,1.0,71,0.00,,,0.03,Weather View 32 v70,2013-08-06 04:20:00,
2013-08-05 20:25:00,60.8,51.3,30.08,South,180,1.0,1.0,71,0.00,,,0.03,Weather View 32 v70,2013-08-06 04:25:00,
2013-08-05 20:30:00,60.8,51.3,30.08,SE,135,1.0,1.0,71,0.00,,,0.03,Weather View 32 v70,2013-08-06 04:30:00,
2013-08-05 20:35:00,60.6,51.1,30.08,SSE,158,0.0,1.0,71,-0.03,,,0.03,Weather View 32 v70,2013-08-06 04:35:00,
2013-08-05 20:40:00,60.6,51.1,30.08,ENE,68,1.0,1.0,71,-0.03,,,0.03,Weather View 32 v70,2013-08-06 04:40:00,
2013-08-05 20:45:00,60.6,51.1,30.07,ENE,68,0.0,1.0,71,0.00,,,0.03,Weather View 32 v70,2013-08-06 04:45:00,
2013-08-05 20:50:00,60.4,51.0,30.07,SSE,158,0.0,1.0,71,0.00,,,0.03,Weather View 32 v70,2013-08-06 04:50:00,
2013-08-05 20:55:00,60.3,51.2,30.07,ESE,112,0.0,1.0,72,0.00,,,0.03,Weather View 32 v70,2013-08-06 04:55:00,
2013-08-05 21:00:00,60.3,51.2,30.07,ENE,68,0.0,1.0,72,0.00,,,0.03,Weather View 32 v70,2013-08-06 05:00:00,
2013-08-05 21:05:00,60.1,51.0,30.08,ESE,112,0.0,1.0,72,0.00,,,0.03,Weather View 32 v70,2013-08-06 05:05:00,
2013-08-05 21:10:00,59.7,50.7,30.08,ESE,112,0.0,1.0,72,0.00,,,0.03,Weather View 32 v70,2013-08-06 05:10:00,
2013-08-05 21:15:00,59.5,50.1,30.08,SSE,158,0.0,1.0,71,0.00,,,0.03,Weather View 32 v70,2013-08-06 05:15:00,
2013-08-05 21:20:00,59.5,50.5,30.08,NE,45,0.0,1.0,72,0.00,,,0.03,Weather View 32 v70,2013-08-06 05:20:00,
2013-08-05 21:25:00,59.5,50.5,30.08,NNE,22,0.0,1.0,72,0.00,,,0.03,Weather View 32 v70,2013-08-06 05:25:00,
2013-08-05 21:30:00,59.5,50.5,30.08,SE,135,0.0,1.0,72,0.00,,,0.03,Weather View 32 v70,2013-08-06 05:30:00,
2013-08-05 21:35:00,59.4,49.9,30.08,ENE,68,1.0,1.0,71,0.00,,,0.03,Weather View 32 v70,2013-08-06 05:35:00,
2013-08-05 21:40:00,59.2,49.8,30.08,NE,45,0.0,1.0,71,0.00,,,0.03,Weather View 32 v70,2013-08-06 05:40:00,
2013-08-05 21:45:00,59.0,50.0,30.08,ENE,68,0.0,1.0,72,-0.03,,,0.03,Weather View 32 v70,2013-08-06 05:45:00,
2013-08-05 21:50:00,59.2,50.1,30.08,WSW,248,0.0,1.0,72,0.00,,,0.03,Weather View 32 v70,2013-08-06 05:50:00,
2013-08-05 21:55:00,58.8,49.8,30.08,NE,45,0.0,1.0,72,0.00,,,0.03,Weather View 32 v70,2013-08-06 05:55:00,
2013-08-05 22:00:00,58.8,49.8,30.08,NE,45,0.0,1.0,72,0.00,,,0.03,Weather View 32 v70,2013-08-06 06:00:00,
2013-08-05 22:05:00,58.8,49.8,30.09,ENE,68,1.0,1.0,72,0.00,,,0.03,Weather View 32 v70,2013-08-06 06:05:00,
2013-08-05 22:10:00,58.5,49.4,30.09,ESE,112,1.0,1.0,72,0.00,,,0.03,Weather View 32 v70,2013-08-06 06:10:00,
2013-08-05 22:15:00,58.3,49.3,30.09,NE,45,1.0,1.0,72,0.00,,,0.03,Weather View 32 v70,2013-08-06 06:15:00,
2013-08-05 22:20:00,58.5,49.4,30.09,NNW,338,1.0,1.0,72,0.00,,,0.03,Weather View 32 v70,2013-08-06 06:20:00,
2013-08-05 22:25:00,58.3,49.3,30.05,NNW,338,1.0,1.0,72,0.00,,,0.03,Weather View 32 v70,2013-08-06 06:25:00,
2013-08-05 22:30:00,58.5,49.4,30.05,NE,45,1.0,1.0,72,0.00,,,0.03,Weather View 32 v70,2013-08-06 06:30:00,
2013-08-05 22:35:00,58.1,49.1,30.05,NNE,22,2.0,2.0,72,0.00,,,0.03,Weather View 32 v70,2013-08-06 06:35:00,
2013-08-05 22:40:00,58.1,49.1,30.05,ESE,112,2.0,2.0,72,0.00,,,0.03,Weather View 32 v70,2013-08-06 06:40:00,
2013-08-05 22:45:00,57.9,48.9,30.03,NNE,22,2.0,2.0,72,0.00,,,0.03,Weather View 32 v70,2013-08-06 06:45:00,
2013-08-05 22:50:00,58.1,49.5,30.03,NE,45,2.0,2.0,73,0.00,,,0.03,Weather View 32 v70,2013-08-06 06:50:00,
2013-08-05 22:55:00,57.7,49.1,30.03,NNE,22,2.0,2.0,73,0.00,,,0.03,Weather View 32 v70,2013-08-06 06:55:00,
2013-08-05 23:00:00,57.7,49.5,30.03,West,270,2.0,2.0,74,0.00,,,0.03,Weather View 32 v70,2013-08-06 07:00:00,
2013-08-05 23:05:00,57.7,49.5,30.03,NE,45,2.0,2.0,74,0.00,,,0.03,Weather View 32 v70,2013-08-06 07:05:00,
2013-08-05 23:10:00,57.7,49.5,30.03,ENE,68,2.0,2.0,74,0.00,,,0.03,Weather View 32 v70,2013-08-06 07:10:00,
2013-08-05 23:15:00,57.6,49.3,30.03,ENE,68,2.0,2.0,74,0.00,,,0.03,Weather View 32 v70,2013-08-06 07:15:00,
2013-08-05 23:20:00,57.6,49.3,30.03,ENE,68,2.0,2.0,74,0.00,,,0.03,Weather View 32 v70,2013-08-06 07:20:00,
2013-08-05 23:25:00,57.4,49.1,30.02,NE,45,2.0,2.0,74,0.00,,,0.03,Weather View 32 v70,2013-08-06 07:25:00,
2013-08-05 23:30:00,57.2,49.0,30.02,NE,45,2.0,2.0,74,0.00,,,0.03,Weather View 32 v70,2013-08-06 07:30:00,
2013-08-05 23:35:00,57.2,49.0,30.02,ENE,68,2.0,2.0,74,0.00,,,0.03,Weather View 32 v70,2013-08-06 07:35:00,
2013-08-05 23:40:00,57.4,49.1,30.02,NNE,22,2.0,2.0,74,0.00,,,0.03,Weather View 32 v70,2013-08-06 07:40:00,
2013-08-05 23:45:00,57.2,49.0,30.01,NE,45,2.0,2.0,74,0.00,,,0.03,Weather View 32 v70,2013-08-06 07:45:00,
2013-08-05 23:50:00,57.2,49.0,30.01,NNE,22,2.0,2.0,74,0.00,,,0.03,Weather View 32 v70,2013-08-06 07:50:00,
2013-08-05 23:55:00,57.2,49.0,30.01,NE,45,2.0,2.0,74,0.00,,,0.03,Weather View 32 v70,2013-08-06 07:55:00,